Location: São Paulo
(23.5507°S, 46.6334°W)
Time: 18:12:52
(UTC-03:00)

Tiros 1 - Pass Details

Date: 18 February 2026
Orbit: 618 x 649 km, 48.4° (Epoch: 8 March)

Event Time Altitude Azimuth Distance (km) Brightness Sun altitude
Rises 20:43:53 0° 260° (W) 2,933 11.7 -26.6°
Reaches altitude 10° 20:48:54 10° 213° (SSW) 2,043 10.5 -27.6°
Maximum altitude 20:49:15 10° 209° (SSW) 2,039 10.4 -27.7°
Drops below altitude 10° 20:49:36 10° 205° (SSW) 2,045 10.3 -27.8°
Sets 20:54:41 0° 158° (SSE) 2,971 10.6 -28.8°
